This demonstration page uses our WeatherBlox Daily Observations layout. Learn more.

36.17497, -115.13722

Hourly Observations for July 25, 2018

Temp ( °F °C ) Dew Point ( °F °C ) Humidity (%) Winds ( mph kmh ) Pressure ( in mb ) Visibility ( mi km ) Precip ( " mm )
12:53 am 00:53 Clear 95 35 51 10.6 23 23 E 6 9 29.88 1012 10 16.09344 0 0
1:53 am 01:53 Clear 94 34.4 52 11.1 24 24 SSW 5 7 29.88 1012 10 16.09344 0 0
2:53 am 02:53 Clear 93 33.9 52 11.1 25 25 W 3 6 29.88 1012 10 16.09344 0 0
3:53 am 03:53 Clear 92 33.3 51 10.6 25 25 W 6 9 29.91 1013 10 16.09344 0 0
4:53 am 04:53 Clear 90 32.2 51 10.6 26 26 NNW 3 6 29.91 1013 10 16.09344 0 0
5:53 am 05:53 Sunny 88 31.1 51 10.6 28 28 NNW 5 7 29.91 1013 10 16.09344 0 0
6:53 am 06:53 Sunny 91 32.8 51 10.6 26 26 NNE 6 9 29.94 1014 10 16.09344 0 0
7:53 am 07:53 Sunny 95 35 50 10 22 22 N 6 9 29.94 1014 10 16.09344 0 0
8:53 am 08:53 Sunny 98 36.7 51 10.6 20 20 NNW 5 7 29.97 1015 10 16.09344 0 0
9:53 am 09:53 Sunny 102 38.9 50 10 17 17 N 3 6 29.94 1014 10 16.09344 0 0
10:53 am 10:53 Sunny 103 39.4 50 10 17 17 N 6 9 29.94 1014 10 16.09344 0 0
11:53 am 11:53 Sunny 105 40.6 50 10 16 16 Calm 29.94 1014 10 16.09344 0 0
12:53 pm 12:53 Sunny 106 41.1 49 9.4 15 15 N 3 6 29.91 1013 10 16.09344 0 0
1:53 pm 13:53 Sunny 109 42.8 49 9.4 13 13 SE 7 11 29.88 1012 10 16.09344 0 0
2:30 pm 14:30 Sunny with Nearby Thunderstorms 110 43.3 47 8.3 12 12 SSW 7 11 29.71 1006 10 16.09344 0 0
2:53 pm 14:53 Sunny with Nearby Thunderstorms 110 43.3 46 7.8 12 12 N 6 9 29.85 1011 10 16.09344 0 0
3:30 pm 15:30 Sunny 112 44.4 45 7.2 11 11 WSW 12 19 29.68 1005 10 16.09344 0 0
3:53 pm 15:53 Sunny 111 43.9 43 6.1 10 10 SSW 9 15 29.83 1010 10 16.09344 0 0
4:53 pm 16:53 Sunny 112 44.4 41 5 9 9 N 6 9 29.8 1009 10 16.09344 0 0
5:53 pm 17:53 Sunny 112 44.4 42 5.6 9 9 SSW 9 15 29.8 1009 10 16.09344 0 0
6:53 pm 18:53 Sunny 111 43.9 42 5.6 10 10 WNW 8 13 29.8 1009 10 16.09344 0 0
7:53 pm 19:53 Clear 107 41.7 46 7.8 13 13 SE 12 19 29.8 1009 10 16.09344 0 0
8:53 pm 20:53 Clear 104 40 46 7.8 14 14 SE 9 15 29.83 1010 10 16.09344 0 0
9:53 pm 21:53 Clear 104 40 46 7.8 14 14 NNW 12 19 29.83 1010 10 16.09344 0 0
10:53 pm 22:53 Clear 105 40.6 43 6.1 12 12 NE 17 28 29.83 1010 10 16.09344 0 0
11:53 pm 23:53 Clear 102 38.9 43 6.1 13 13 ENE 5 7 29.83 1010 10 16.09344 0 0

Powered by AerisWeather